Weather History for Sofia, Bulgaria

Change the Weather History Date:

Friday, December 14, 2012

  Actual Average Record
Temperature  
Mean Temperature 16 °F -  
Max Temperature 25 °F 38 °F 55 °F (2000)
Min Temperature 6 °F 25 °F 6 °F (2012)
Degree Days  
Heating Degree Days 50    
Moisture  
Dew Point 12 °F    
Average Humidity 87    
Maximum Humidity 100    
Minimum Humidity 53    
Precipitation  
Precipitation 0.00 in 0.05 in - ()
Sea Level Pressure  
Sea Level Pressure 30.39 in    
Wind  
Wind Speed 1 mph ()    
Max Wind Speed 4 mph    
Max Gust Speed -    
Visibility 3.0 miles    
Events Fog    
Averages and records for this station are not official NWS values.
T = Trace of Precipitation, MM = Missing Value Source: Averaged Metar Reports

Daily Weather History Graph

Daily Weather History Graph

Search for Another Location

Airport:

Trip Planner

Search our weather history database for the weather conditions in past years. The results will help you decide how hot, cold, wet, or windy it might be!

Date:

Astronomy

Dec. 14, 2012 Rise Set
Actual Time 7:49 AM EET 4:53 PM EET
Civil Twilight 7:16 AM EET 5:25 PM EET
Nautical Twilight 6:41 AM EET 6:01 PM EET
Astronomical Twilight 6:07 AM EET 6:35 PM EET
Moon 8:36 AM EET (12/14) 6:24 PM EET (12/14)
Length of Visible Light 10h 08m
Length of Day
9h 04m
New Moon, 2% of the Moon is Illuminated
Dec 14
New Moon
Dec 20
First Quarter
Dec 28
Full
Jan 5
Last Quarter
Jan 11
New

Hourly Weather History & Observations

Time (EET) Temp. Windchill Dew Point Humidity Pressure Visibility Wind Dir Wind Speed Gust Speed Precip Events Conditions
12:00 AM 12.2 °F - 10.4 °F 92% 30.36 in 3.1 mi Variable 2.2 mph - N/A   Mist
12:30 AM 12.2 °F - 10.4 °F 92% 30.36 in 3.7 mi Calm Calm - N/A   Unknown
1:30 AM 10.4 °F - 8.6 °F 92% 30.36 in 3.7 mi SE 2.2 mph - N/A   Unknown
2:00 AM 15 °F - 11 °F 75% 30.50 in 11 mi Calm Calm - -  
3:00 AM 8.6 °F - 6.8 °F 92% 30.36 in 3.1 mi Calm Calm - N/A   Mist
3:30 AM 10.4 °F - 8.6 °F 92% 30.36 in - Calm Calm - N/A   Mist
4:00 AM 10.4 °F 2.4 °F 8.6 °F 92% 30.36 in 0.1 mi NNW 4.5 mph - N/A Fog Light Freezing Fog
4:30 AM 6.8 °F - 6.8 °F 100% 30.36 in 0.2 mi Calm Calm - N/A Fog Light Freezing Fog
5:00 AM 11 °F - 9 °F 85% 30.52 in 10 mi Calm Calm - -   Scattered Clouds
5:00 AM 6.8 °F - 5.0 °F 92% 30.36 in - SE 2.2 mph - N/A Fog Light Freezing Fog
5:30 AM 6.8 °F -1.8 °F 5.0 °F 92% 30.36 in 1.2 mi East 4.5 mph - N/A   Partly Cloudy
6:00 AM 5.0 °F - 3.2 °F 92% 30.36 in 2.2 mi East 2.2 mph - N/A   Partly Cloudy
6:30 AM 5.0 °F - 3.2 °F 92% 30.36 in 3.1 mi Calm Calm - N/A Fog Light Freezing Fog
7:00 AM 6.8 °F - 5.0 °F 92% 30.36 in 1.6 mi Variable 2.2 mph - N/A   Partly Cloudy
7:30 AM 6.8 °F - 5.0 °F 92% 30.36 in 2.5 mi Calm Calm - N/A   Mist
8:00 AM 8 °F - 7 °F 93% 30.55 in 9 mi Calm Calm - -   Clear
8:00 AM 6.8 °F - 5.0 °F 92% 30.39 in 1.8 mi Calm Calm - N/A   Mist
8:30 AM 8.6 °F - 6.8 °F 92% 30.39 in 1.6 mi ESE 2.2 mph - N/A   Mist
9:00 AM 10.4 °F - 8.6 °F 92% 30.39 in 1.6 mi East 2.2 mph - N/A   Mist
9:30 AM 12.2 °F - 10.4 °F 92% 30.39 in 1.1 mi Calm Calm - N/A   Mist
10:00 AM 14.0 °F - 12.2 °F 93% 30.39 in 1.6 mi Calm Calm - N/A   Mist
10:30 AM 12.2 °F - 10.4 °F 92% 30.39 in 0.9 mi Variable 2.2 mph - N/A Fog Light Freezing Fog
11:00 AM 17 °F - 10 °F 65% 30.54 in 4 mi Calm Calm - -   Haze
11:00 AM 17.6 °F - 17.6 °F 100% 30.42 in 1.2 mi Variable 2.2 mph - N/A   Mist
11:30 AM 15.8 °F - 15.8 °F 100% 30.39 in 1.2 mi Variable 2.2 mph - N/A   Mist
12:00 PM 21.2 °F - 17.6 °F 86% 30.39 in 1.1 mi Variable 2.2 mph - N/A   Mist
12:30 PM 19.4 °F - 14.0 °F 80% 30.39 in 1.4 mi Variable 2.2 mph - N/A   Mist
1:00 PM 21.2 °F - 15.8 °F 80% 30.36 in 2.2 mi Variable 2.2 mph - N/A   Mist
1:30 PM 21.2 °F - 14.0 °F 74% 30.36 in 3.7 mi Calm Calm - N/A   Unknown
2:00 PM 25 °F - 15 °F 53% 30.46 in 4 mi Calm Calm - -   Haze
2:00 PM 24.8 °F - 15.8 °F 69% 30.36 in 3.7 mi Variable 2.2 mph - N/A   Unknown
2:30 PM 23.0 °F - 15.8 °F 74% 30.36 in 3.7 mi Variable 2.2 mph - N/A   Unknown
3:00 PM 24.8 °F - 17.6 °F 74% 30.36 in 3.7 mi Variable 2.2 mph - N/A   Unknown
3:30 PM 23.0 °F - 15.8 °F 74% 30.36 in 3.7 mi NE 2.2 mph - N/A   Unknown
4:00 PM 24.8 °F - 15.8 °F 69% 30.33 in 3.7 mi NE 2.2 mph - N/A   Unknown
4:30 PM 23.0 °F - 15.8 °F 74% 30.36 in 4.3 mi Calm Calm - N/A   Unknown
5:00 PM 22 °F - 16 °F 67% 30.46 in 5 mi Calm Calm - -   Haze
5:00 PM 23.0 °F 17.1 °F 17.6 °F 80% 30.33 in 4.3 mi East 4.5 mph - N/A   Unknown
5:30 PM 19.4 °F 12.9 °F 14.0 °F 80% 30.36 in 4.3 mi ESE 4.5 mph - N/A   Unknown
6:00 PM 21.2 °F - 17.6 °F 86% 30.36 in 4.3 mi SSE 2.2 mph - N/A   Unknown
6:30 PM 21.2 °F - 15.8 °F 80% 30.36 in 5.0 mi Variable 2.2 mph - N/A   Unknown
7:00 PM 17.6 °F - 15.8 °F 93% 30.36 in 3.1 mi NE 2.2 mph - N/A   Mist
7:30 PM 17.6 °F 10.8 °F 15.8 °F 93% 30.36 in - East 4.5 mph - N/A   Mist
8:00 PM 17 °F - 16 °F 94% 30.50 in 5 mi Calm Calm - -   Haze
8:00 PM 14.0 °F - 12.2 °F 93% 30.36 in 1.4 mi East 2.2 mph - N/A   Mist
8:30 PM 15.8 °F - 14.0 °F 93% 30.36 in 1.8 mi Variable 2.2 mph - N/A   Mist
9:00 PM 15.8 °F 8.7 °F 14.0 °F 93% 30.36 in - Variable 4.5 mph - N/A   Mist
9:30 PM 14.0 °F 6.6 °F 12.2 °F 93% 30.36 in 1.2 mi NNE 4.5 mph - N/A   Mist
10:00 PM 14.0 °F - 12.2 °F 93% 30.36 in 1.0 mi Variable 2.2 mph - N/A   Mist
10:30 PM 14.0 °F - 12.2 °F 93% 30.36 in 1.8 mi Variable 2.2 mph - N/A   Mist
11:00 PM 16 °F - 13 °F 85% 30.51 in 2 mi Calm Calm - -   Mist
11:00 PM 12.2 °F - 12.2 °F 100% 30.36 in 1.4 mi Calm Calm - N/A   Mist
11:30 PM 12.2 °F - 10.4 °F 92% 30.36 in 0.8 mi ENE 2.2 mph - N/A   Mist